Fort Stockton, TX

1:25 PM CDT on April 27, 2017 (GMT -0500)
Fort Stockton-Pecos County

Weather History for KFST - March, 2012

Change the Weather History Date:

Saturday, March 3, 2012

  Actual Average Record
Temperature  
Mean Temperature 48 °F -  
Max Temperature 60 °F 66 °F 88 °F (2011)
Min Temperature 35 °F 41 °F 21 °F (2014)
Degree Days  
Heating Degree Days 18    
Moisture  
Dew Point 6 °F    
Average Humidity 23    
Maximum Humidity 61    
Minimum Humidity 6    
Precipitation  
Precipitation 0.00 in - - ()
Sea Level Pressure  
Sea Level Pressure 30.13 in    
Wind  
Wind Speed 11 mph (WNW)    
Max Wind Speed 23 mph    
Max Gust Speed 31 mph    
Visibility 10 miles    
Events      
Averages and records for this station are not official NWS values.
T = Trace of Precipitation, MM = Missing Value Source: NWS Daily Summary

Daily Weather History Graph

Daily Weather History Graph

Search for Another Location

Airport or City:

Trip Planner

Search our weather history database for the weather conditions in past years. The results will help you decide how hot, cold, wet, or windy it might be!

Date:

Astronomy

Mar. 03, 2012 Rise Set
Actual Time 7:15 AM CST 6:52 PM CST
Civil Twilight 6:51 AM CST 7:16 PM CST
Nautical Twilight 6:23 AM CST 7:44 PM CST
Astronomical Twilight 5:55 AM CST 8:12 PM CST
Moon 2:19 PM CST (3/3) 3:37 AM CST (3/3)
Length of Visible Light 12h 25m
Length of Day
11h 36m
Waxing Gibbous, 75% of the Moon is Illuminated
Mar 3
Waxing Gibbous
Mar 8
Full
Mar 14
Last Quarter
Mar 22
New
Mar 30
First Quarter

Hourly Weather History & Observations

Time (CST) Temp. Windchill Dew Point Humidity Pressure Visibility Wind Dir Wind Speed Gust Speed Precip Events Conditions
12:53 AM 45.0 °F 39.3 °F 6.1 °F 20% 30.01 in 10.0 mi WNW 11.5 mph - N/A   Clear
1:53 AM 43.0 °F 36.4 °F 8.1 °F 24% 30.02 in 10.0 mi NW 12.7 mph - N/A   Clear
2:53 AM 42.1 °F 37.1 °F 10.0 °F 27% 30.02 in 10.0 mi NW 8.1 mph - N/A   Clear
3:53 AM 39.0 °F 33.4 °F 12.0 °F 33% 30.04 in 10.0 mi NW 8.1 mph - N/A   Clear
4:53 AM 37.9 °F 31.5 °F 15.1 °F 39% 30.07 in 10.0 mi WNW 9.2 mph - N/A   Clear
5:53 AM 37.0 °F 29.8 °F 16.0 °F 42% 30.09 in 10.0 mi West 10.4 mph - N/A   Clear
6:53 AM 35.1 °F 26.9 °F 18.0 °F 50% 30.13 in 10.0 mi West 11.5 mph - N/A   Clear
7:53 AM 35.1 °F 26.9 °F 23.0 °F 61% 30.16 in 10.0 mi West 11.5 mph - N/A   Clear
8:53 AM 42.1 °F 34.5 °F 24.1 °F 49% 30.18 in 10.0 mi WNW 15.0 mph 25.3 mph N/A   Clear
9:53 AM 45.0 °F 36.4 °F 15.1 °F 30% 30.21 in 10.0 mi NW 23.0 mph 31.1 mph N/A   Clear
10:53 AM 48.0 °F - 12.9 °F 24% 30.21 in 10.0 mi NW 17.3 mph 23.0 mph N/A   Clear
11:53 AM 51.1 °F - 12.0 °F 21% 30.19 in 10.0 mi WNW 16.1 mph 23.0 mph N/A   Clear
12:53 PM 53.1 °F - 6.1 °F 15% 30.16 in 10.0 mi WNW 16.1 mph 24.2 mph N/A   Clear
1:53 PM 55.0 °F - 1.0 °F 11% 30.14 in 10.0 mi West 16.1 mph 26.5 mph N/A   Clear
2:53 PM 57.0 °F - 1.9 °F 11% 30.11 in 10.0 mi WNW 11.5 mph 21.9 mph N/A   Clear
3:53 PM 59.0 °F - -0.9 °F 9% 30.10 in 10.0 mi NW 11.5 mph 21.9 mph N/A   Clear
4:53 PM 60.1 °F - -6.0 °F 7% 30.09 in 10.0 mi WNW 17.3 mph 21.9 mph N/A   Clear
5:53 PM 59.0 °F - -9.0 °F 6% 30.10 in 10.0 mi WNW 9.2 mph - N/A   Clear
6:53 PM 54.0 °F - -7.1 °F 8% 30.13 in 10.0 mi WNW 5.8 mph - N/A   Clear
7:53 PM 48.0 °F - -2.9 °F 12% 30.15 in 10.0 mi Calm Calm - N/A   Clear
8:53 PM 46.9 °F - 1.0 °F 15% 30.17 in 10.0 mi South 4.6 mph - N/A   Clear
9:53 PM 45.0 °F 42.6 °F -0.0 °F 15% 30.19 in 10.0 mi South 4.6 mph - N/A   Clear
10:53 PM 44.1 °F 39.0 °F -0.9 °F 15% 30.19 in 10.0 mi SW 9.2 mph - N/A   Clear
11:53 PM 42.1 °F 36.1 °F -2.0 °F 16% 30.19 in 10.0 mi SW 10.4 mph - N/A   Clear